This is the latest recevied weather packets stored in our database for station/object R6HABA-13. If no packets are shown the sender has not sent any weather packets the latest 10 day(s).
| Time | Temp. | Humidity | Pressure | Rain* | Wind** | Luminosity | Snow |
|---|---|---|---|---|---|---|---|
| 1777522502 | -1.11° C | 90% | 1023 hPa | - | 1.34 m/s, 351° | - | - |
| 1777521603 | -1.11° C | 90% | 1024 hPa | - | 1.34 m/s, 351° | - | - |
| 1777520703 | -1.11° C | 90% | 1024 hPa | - | 1.34 m/s, 351° | - | - |
| 1777519803 | -1.11° C | 90% | 1024 hPa | - | 1.34 m/s, 351° | - | - |
| 1777518904 | -1.11° C | 90% | 1023 hPa | - | 1.34 m/s, 351° | - | - |
| 1777518003 | -1.11° C | 90% | 1023 hPa | - | 1.34 m/s, 351° | - | - |
| 1777517102 | -1.11° C | 90% | 1023 hPa | - | 1.34 m/s, 351° | - | - |
| 1777516203 | -1.11° C | 90% | 1023 hPa | - | 1.34 m/s, 351° | - | - |
| 1777515302 | -1.11° C | 90% | 1023 hPa | - | 1.34 m/s, 351° | - | - |
| 1777514402 | -1.11° C | 90% | 1023 hPa | - | 1.34 m/s, 351° | - | - |
| 1777513503 | -1.11° C | 90% | 1023 hPa | - | 1.34 m/s, 351° | - | - |
| 1777513255 | -17.78° C | - | 0 hPa | - | 0 m/s | - | - |
| 1777511703 | -2.22° C | 92% | 1023 hPa | - | 1.34 m/s, 330° | - | - |
| 1777487926 | -17.78° C | - | 0 hPa | - | 1.34 m/s, 335° | - | - |
| 1777486503 | 1.11° C | 81% | 1020 hPa | - | 1.34 m/s, 335° | - | - |
| 1777477503 | 5° C | 67% | 1019 hPa | - | 3.58 m/s, 325° | - | - |
| 1777468632 | 5° C | - | 1018 hPa | - | 3.58 m/s, 325° | - | - |
| 1777465803 | 5° C | 64% | 1018 hPa | - | 3.58 m/s, 325° | - | - |
| 1777464903 | 5° C | 64% | 1017 hPa | - | 3.58 m/s, 325° | - | - |
| 1777462202 | 5° C | 64% | 1017 hPa | - | 4.02 m/s, 325° | - | - |
| 1777461433 | -17.78° C | 63% | 1017 hPa | - | 4.47 m/s, 319° | - | - |
| 1777460403 | 5° C | 63% | 1017 hPa | - | 4.47 m/s, 319° | - | - |
| 1777457703 | 5° C | 63% | 1017 hPa | - | 4.47 m/s, 319° | - | - |
| 1777455657 | -17.78° C | - | 0 hPa | - | 4.47 m/s, 0° | - | - |
| 1777454626 | -17.78° C | - | 0 hPa | - | 0 m/s | - | - |
* Rain since midnight (hover to see other rain measurements)
** Current wind speed in m/s (hover to see current wind gust speed)